Location: Crescent
(42.8242°N, 73.7329°W)
Time: 15:40:27
(UTC+00:00)

Courier 1B - Pass Details

Date: 19 February 2026
Orbit: 962 x 1208 km, 28.3° (Epoch: 7 March)

Event Time Altitude Azimuth Distance (km) Brightness Sun altitude
Rises 02:05:58 0° 245° (WSW) 3,949 11.1 -39.5°
Reaches altitude 10° 02:09:10 10° 233° (SW) 3,028 10.3 -40.0°
Enters shadow 02:10:49 16° 224° (SW) 2,623 9.8 -40.3°
